User: anonymous   Login
Location: Hylvaty SDH
(49.9612°N, 16.4057°E)
Time: 09:29:31
(UTC+01:00)
Language:

Transit 2A - Orbit

View from above orbital plane
View from above orbital plane
View from above satellite
View from above satellite

Ground track
Ground track

The orbit data is extracted from the following two-line orbital elements,

1    45U 60007A   20022.46051588 -.00000062 +00000-0 +11121-4 0  9994
2    45 066.6948 048.2810 0249016 061.8182 300.7827 14.33663023044760
Epoch (UTC): 22 January 2020 11:03:08
Eccentricity: 0.0249016
inclination: 66.6948°
perigee height: 601 km
apogee height: 958 km
right ascension of ascending node: 48.2810°
argument of perigee: 61.8182°
revolutions per day: 14.33663023
mean anomaly at epoch: 300.7827°
orbit number at epoch: 4476

The dashed part of the orbit path shows where the satellite is in the earth's shadow,  

DLR